Tracking 31027 objects as of 19-Jul-2025
HD Live streaming from Space Station
objects crossing your sky now

ATLAS 5 CENTAUR DEB

Track ATLAS 5 CENTAUR DEB now!


NORAD ID: 53516
Int'l Code: 2014-055DM
Perigee: 8,247.3 km
Apogee: 35,572.0 km
Inclination: 19.4 °
Period: 788.8 minutes
Semi major axis: 28280 km
RCS: Unknown
Launch date: September 17, 2014
Source: United States (US)
Launch site: AIR FORCE EASTERN TEST RANGE (AFETR)

Note: This is SATELLITE DEBRIS
Your satellite tracking list
STARLINK-30236
Track 1 satellite(s)




NASA's NSSDC Master Catalog

Two Line Element Set (TLE):
1 53516U 14055DP  25198.31078339 -.00000004  00000-0  00000+0 0  9998
2 53516  19.3944 188.3138 4831003  85.9679 325.8028  1.82544564 19969
Source of the keplerian elements: AFSPC